Regional Weather Roundup
Issued by NWS

Home | Current Version | Previous Version | Text Only | Print | Product List | Glossary On
Versions: 1 2 3 4 5 6 7 8 9 10 11 12 13 14 15 16 17 18 19 20 21 22 23 24 25 26 27 28 29 30 31 32 33 34 35 36 37 38 39 40 41 42 43 44 45 46 47 48 49 50
000
ASUS43 KIND 271809
RWRIN

WEATHER ROUNDUP FOR INDIANA
NATIONAL WEATHER SERVICE INDIANAPOLIS IN
100 PM EST THU NOV 27 2014

NOTE: "FAIR" INDICATES FEW OR NO CLOUDS BELOW 12,000 FEET WITH NO
SIGNIFICANT WEATHER AND/OR OBSTRUCTIONS TO VISIBILITY.

* - STATION DOES NOT REPORT WEATHER SUCH AS PRECIPITATION OR FOG.

+ - STATION NOT QUALITY CONTROLLED BY THE NATIONAL WEATHER SERVICE.
    USE DATA WITH CAUTION...ESPECIALLY DEWPOINT AND RELATIVE
    HUMIDITY OBSERVATIONS.

INZ001>003-010>013-019-020-271900-
NORTHWEST INDIANA

CITY           SKY/WX    TMP DP  RH WIND       PRES   REMARKS
GARY /AIRPORT/ CLOUDY    30  19  64 W13       30.33F WCI  20
KNOX *+        CLOUDY    28  22  77 W10       30.28S WCI  19
LA PORTE +     CLOUDY    31  25  77 NW8G21    30.28S WCI  23
6HR MIN TEMP:  30; 6HR MAX TEMP:  32;

MICHIGAN CITY+ CLOUDY    30  21  69 NW6G21    30.29S WCI  24
MONTICELLO +   CLOUDY    28  22  80 W14       30.31S WCI  17
RENSSELAER +   CLOUDY    28  27  93 W14G21    30.33S WCI  17
VALPARAISO     CLOUDY    28  20  71 NW14G20   30.30S WCI  17
6HR MIN TEMP:  26; 6HR MAX TEMP:  28; 6HR PCP: TRACE;


$$

LMZ046-743>745-271900-
SOUTHERN LAKE MICHIGAN

STATION/POSITION TIME  TEMP WIND        PRES
                       AIR  DIR/SP/G
                 (UTC) (F)  (DEG/KT/KT) (MB)
MICHIGAN CITY    1800   29  290/ 22/ 25   N/A

$$

INZ004-005-014>016-021>024-271900-
NORTH CENTRAL INDIANA

CITY           SKY/WX    TMP DP  RH WIND       PRES   REMARKS
GOSHEN         CLOUDY    31  28  89 W14       30.22F WCI  21
6HR MIN TEMP:  28; 6HR MAX TEMP:  31; 6HR PCP:  0.01;

LOGANSPORT +   CLOUDY    28  21  74 W14       30.31S WCI  17
PERU/GRISSOM   CLOUDY    30  27  90 W13       30.28S WCI  20
6HR MIN TEMP:  27; 6HR MAX TEMP:  30; 6HR PCP: TRACE;

ROCHESTER +    CLOUDY    32  27  80 W10G18    30.27S WCI  24
SOUTH BEND     FLURRIES  31  25  78 W16       30.25S WCI  20
6HR MIN TEMP:  28; 6HR MAX TEMP:  31; 6HR PCP:  0.15;

WARSAW +       CLOUDY    32  27  80 W16       30.24S WCI  21

$$

INZ006>009-017-018-025>027-271900-
NORTHEAST INDIANA

CITY           SKY/WX    TMP DP  RH WIND       PRES   REMARKS
ANGOLA *+      CLOUDY    30  18  59 W12       30.18F WCI  21
AUBURN +       LGT SNOW  32  27  80 W13       30.21F WCI  22
FORT WAYNE     CLOUDY    32  26  78 W15       30.23F WCI  22
6HR MIN TEMP:  26; 6HR MAX TEMP:  32; 6HR PCP: TRACE;

HUNTINGTON +   LGT SNOW  30  27  89 W13       30.24S WCI  20
6HR MIN TEMP:  27; 6HR MAX TEMP:  31;


$$

INZ028-029-035-036-043>045-051>053-271900-
WEST CENTRAL INDIANA

CITY           SKY/WX    TMP DP  RH WIND       PRES   REMARKS
GREENCASTLE +  CLOUDY    30  21  69 W8G20     30.34F WCI  23
LAFAYETTE      CLOUDY    27  21  78 W13G23    30.34S WCI  16
6HR MIN TEMP:  25; 6HR MAX TEMP:  28; 6HR PCP: TRACE;

TERRE HAUTE    CLOUDY    29  20  69 NW12      30.39S WCI  19
6HR MIN TEMP:  24; 6HR MAX TEMP:  29;


$$

INZ030>032-037>040-046>048-054>057-064-065-271900-
CENTRAL INDIANA

CITY           SKY/WX    TMP DP  RH WIND       PRES   REMARKS
CP ATTERBURY + LGT SNOW  32  27  80 W8G18     30.34S WCI  25
COLUMBUS       FLURRIES  30  25  80 NW12      30.34S WCI  21
FRANKFORT +    CLOUDY    30  25  80 SW17      30.33S WCI  18
INDIANAPOLIS   CLOUDY    30  21  69 W15       30.31F WCI  19
6HR MIN TEMP:  25; 6HR MAX TEMP:  31; 6HR PCP: TRACE;

-EAGLE CREEK   CLOUDY    30  22  72 W14       30.31F WCI  19
6HR MIN TEMP:  25; 6HR MAX TEMP:  30; 6HR PCP: TRACE;

KOKOMO *+      CLOUDY    28  25  86 W18G24    30.28S WCI  16
MARION +         N/A     29  25  82 W14G22    30.28R WCI  19
MT COMFORT *+  CLOUDY    30  21  69 W9        30.30S WCI  22
SHELBYVILLE    LGT SNOW  31  25  78 W15       30.31S WCI  20
6HR MIN TEMP:  27; 6HR MAX TEMP:  32; 6HR PCP: TRACE;

ZIONSVILLE +   CLOUDY    30  22  70 W12G18    30.31S WCI  21
6HR MIN TEMP:  26; 6HR MAX TEMP:  31;


$$

INZ033-034-041-042-049-050-058-059-271900-
EAST CENTRAL INDIANA

CITY           SKY/WX    TMP DP  RH WIND       PRES   REMARKS
MUNCIE         LGT SNOW  30  25  81 W10       30.27R WCI  21
6HR MIN TEMP:  26; 6HR MAX TEMP:  30; 6HR PCP: TRACE;


$$

INZ060-061-067>069-081>083-085>088-271900-
SOUTHWEST INDIANA

CITY           SKY/WX    TMP DP  RH WIND       PRES   REMARKS
EVANSVILLE     PTSUNNY   31  22  69 W9        30.44F WCI  23
6HR MIN TEMP:  28; 6HR MAX TEMP:  32;

HUNTINGBURG *+ CLOUDY    32  23  69 NW12      30.41F WCI  23
6HR MIN TEMP:  28; 6HR MAX TEMP:  32;

WASHINGTON +   CLOUDY    29  25  86 W13       30.41S WCI  19
6HR MIN TEMP:  27; 6HR MAX TEMP:  30;


$$

INZ062-063-066-070>080-084-089>092-271900-
SOUTH CENTRAL AND SOUTHEAST INDIANA

CITY           SKY/WX    TMP DP  RH WIND       PRES   REMARKS
BLOOMINGTON    CLOUDY    30  21  69 W10       30.35S WCI  21
6HR MIN TEMP:  25; 6HR MAX TEMP:  31;


$$



USA.gov is the U.S. government's official web portal to all federal, state and local government web resources and services.